[Iaude] MPEC J66: 2024 JH1 [a=1.31,e=0.26,i=6.4,H=26.4]
    mpec at cfa.harvard.edu 
    mpec at cfa.harvard.edu
       
    Sat May  4 17:18:45 EDT 2024
    
    
  
M.P.E.C. 2024-J66                                   Issued 2024 May 4, 21:17 UT
     The Minor Planet Electronic Circulars contain information on unusual
         minor planets, routine data on comets and natural satellites,
         and occasional editorial announcements.  They are published
    on behalf of Division F of the International Astronomical Union by the
          Minor Planet Center, Smithsonian Astrophysical Observatory,
                          Cambridge, MA 02138, U.S.A.
			  
             Prepared using the Tamkin Foundation Computer Network
                              MPC at CFA.HARVARD.EDU
            URL https://www.minorplanetcenter.net/    ISSN 1523-6714
                                    2024 JH1                                    
Observations:
     K24J01H*1C2024 05 03.29187812 35 16.249+15 27 01.91         19.79GVEJ066G96
     K24J01H 1C2024 05 03.29700412 35 22.931+15 27 07.88         20.05GVEJ066G96
     K24J01H 1C2024 05 03.30213112 35 29.591+15 27 13.64         20.66GVEJ066G96
     K24J01H 1C2024 05 03.30727212 35 36.319+15 27 19.51         20.46GVEJ066G96
     K24J01H KC2024 05 03.38080512 37 12.745+15 28 35.22         21.01GVEJ066I52
     K24J01H KC2024 05 03.38159212 37 13.775+15 28 35.76         20.66GVEJ066I52
     K24J01H KC2024 05 03.38238412 37 14.801+15 28 36.55               VEJ066I52
     K24J01H KC2024 05 03.38318512 37 15.920+15 28 36.98         21.56GVEJ066I52
     K24J01H KC2024 05 04.13464512 53 56.55 +15 41 01.8          20.5 GVEJ066H21
     K24J01H KC2024 05 04.13604412 53 58.20 +15 41 02.9          20.5 GVEJ066H21
     K24J01H KC2024 05 04.13825912 54 06.394+15 41 24.90         20.31GVEJ066I52
     K24J01H KC2024 05 04.13905112 54 07.308+15 41 25.73         20.01GVEJ066I52
     K24J01H KC2024 05 04.13983812 54 08.262+15 41 27.17         20.14GVEJ066I52
     K24J01H KC2024 05 04.14010812 54 07.36 +15 41 18.2          20.0 GXEJ066858
     K24J01H KC2024 05 04.14062612 54 09.173+15 41 27.10         20.50GVEJ066I52
     K24J01H KC2024 05 04.14163812 54 04.89 +15 41 07.5          21.1 GVEJ066H21
     K24J01H KC2024 05 04.14700012 54 15.41 +15 41 24.2          20.2 GXEJ066858
     K24J01H KC2024 05 04.15395612 54 23.55 +15 41 30.7          20.6 GXEJ066858
     K24J01H !C2024 05 04.19711 12 55 16.36 +15 42 05.7          20.1 GVEJ066673
     K24J01H !C2024 05 04.19886 12 55 18.39 +15 42 07.2                VEJ066673
     K24J01H 0C2024 05 04.23629512 56 11.234+15 43 21.37         20.44GVEJ066T12
     K24J01H 0C2024 05 04.23847212 56 13.753+15 43 23.35         20.56GVEJ066T12
     K24J01H 1C2024 05 04.87334 13 08 36.77 +15 46 59.3          21.9 VXEJ066033
     K24J01H 1C2024 05 04.87446 13 08 38.01 +15 46 59.8          21.3 VXEJ066033
     K24J01H 1C2024 05 04.87558 13 08 39.18 +15 47 00.1          20.9 VXEJ066033
     K24J01H 1C2024 05 04.87672 13 08 40.41 +15 47 00.4          21.3 VXEJ066033
Observer details:
033 Karl Schwarzschild Observatory, Tautenburg.  Observers S. Melnikov, C.
    Hogner, F. Ludwig, M. Hartmann, B. Stecklum.  Measurer B. Stecklum.
    1.34-m f/3 Schmidt + CCD.
673 Table Mountain Observatory, Wrightwood.  Observer J. Pittichova.  1.0-m
    f/15 reflector + CCD.
858 Tebbutt Observatory, Edgewood.  Observer F. B. Zoltowski.  0.51-m f/8.1
    Schmidt-Cassegrain + CCD.
G96 Mt. Lemmon Survey.  Observer H. Groeller.  Measurers T. Beuden, V. F.
    Carvajal, D. Fay, J. B. Fazekas, D. C. Fuls, A. R. Gibbs, A. D. Grauer, H.
    Groeller, J. K. Hogan, R. A. Kowalski, S. M. Larson, G. J. Leonard, D.
    Rankin, R. L. Seaman, F. C. Shelly, K. W. Wierzchos.  1.5-m reflector +
    10K CCD.
H21 Astronomical Research Observatory, Westfield.  Observer R. Holmes.
    Measurers T. Linder, R. Holmes, L. Horn.  0.76-m f/3.0 astrograph + CCD.
I52 Steward Observatory, Mt. Lemmon Station.  Observer V. F. Carvajal.
    Measurers T. Beuden, V. F. Carvajal, D. Fay, J. B. Fazekas, D. C. Fuls, A.
    R. Gibbs, A. D. Grauer, H. Groeller, J. K. Hogan, R. A. Kowalski, S. M.
    Larson, G. J. Leonard, D. Rankin, R. L. Seaman, F. C. Shelly, K. W.
    Wierzchos.  1.0-m prime focus + CCD.
T12 University of Hawaii 88-inch telescope, Maunakea.  Observer D. J. Tholen.
    2.24-m f/10.1 reflector + 2112 x 2112 pixels STA1600 10k CCD.
Orbital elements:
2024 JH1                                                 Earth MOID = 0.0082 AU
Epoch 2024 Mar. 31.0 TT = JDT 2460400.5                 MPC                     
M   5.36778              (2000.0)            P               Q                  
n   0.66063229     Peri.  318.95389     -0.99485270     -0.07598893             
a   1.3056583      Node   216.85091     +0.09329341     -0.94508629             
e   0.2592811      Incl.    6.41768     -0.03955314     -0.31786411             
P   1.49           H   26.43          G   0.15           U   7                  
Residuals in seconds of arc
240503 G96  0.0   0.1-    240504 H21  0.2+  0.1+    240504 673  0.5+  0.3-
240503 G96  0.1+  0.0     240504 I52  0.1-  0.3-    240504 673  0.6+  0.2-
240503 G96  0.1-  0.1-    240504 I52  0.3-  0.2-    240504 T12  0.0   0.0
240503 G96  0.3+  0.0     240504 I52  0.1+  0.5+    240504 T12  0.1-  0.1-
240503 I52  0.1-  0.2+    240504 858  0.2+  0.2-    240504 033  0.3-  0.0
240503 I52  0.3-  0.0     240504 I52  0.1-  0.3-    240504 033  0.3+  0.0
240503 I52  0.6-  0.1+    240504 H21 (2.5+  0.2+)   240504 033  0.2-  0.1-
240503 I52  0.3+  0.3-    240504 858  0.1+  0.3-    240504 033  0.1-  0.3-
240504 H21  0.0   0.1+    240504 858  0.4+  0.1+
Ephemeris:
2024 JH1                 a,e,i = 1.31, 0.26, 6                   q = 0.9671
Date    TT    R. A. (2000) Decl.     Delta      r    Elong.  Phase     V
2024 04 04    05 31 18.2 -08 17 01   0.09452 0.9731    70.8   104.0    25.1
...
2024 04 19    06 59 07.5 -02 51 03   0.04561 0.9963    78.5    98.9    23.3
...
2024 04 27    09 34 41.6 +08 02 58   0.02872 1.0149   106.3    72.1    21.3
...
2024 05 03    12 28 30.6 +15 21 27   0.03267 1.0314   134.9    43.8    20.8
2024 05 04    12 51 03.2 +15 40 57   0.03479 1.0343   137.7    41.0    20.8
2024 05 05    13 10 57.2 +15 49 56   0.03719 1.0373   139.9    38.8    20.9
...
2024 05 11    14 27 54.2 +15 01 18   0.05545 1.0561   145.4    32.9    21.7
...
2024 05 19    15 13 01.7 +13 00 05   0.08489 1.0834   146.4    31.1    22.6
...
2024 06 03    15 46 33.2 +09 11 41   0.1483  1.1396   145.5    30.3    23.9
A. U. Tomatic                (C) Copyright 2024 MPC           M.P.E.C. 2024-J66
    
    
More information about the Iaude
mailing list